Weather History for Manitowoc, WI

Change the Weather History Date:

Sunday, October 20, 2013

  Actual Average Record
Temperature  
Mean Temperature 40 °F -  
Max Temperature 50 °F 55 °F 78 °F (2003)
Min Temperature 34 °F 37 °F 21 °F (1972)
Degree Days  
Heating Degree Days 25    
Moisture  
Dew Point 39 °F    
Average Humidity 87    
Maximum Humidity 96    
Minimum Humidity 63    
Precipitation  
Precipitation 0.07 in - - ()
Sea Level Pressure  
Sea Level Pressure 29.82 in    
Wind  
Wind Speed 7 mph (SW)    
Max Wind Speed 14 mph    
Max Gust Speed 18 mph    
Visibility 10 miles    
Events Rain    
Averages and records for this station are not official NWS values.
T = Trace of Precipitation, MM = Missing Value Source: NWS Daily Summary

Daily Weather History Graph

Daily Weather History Graph

Search for Another Location

Airport:

Trip Planner

Search our weather history database for the weather conditions in past years. The results will help you decide how hot, cold, wet, or windy it might be!

Date:

Astronomy

Oct. 20, 2013 Rise Set
Actual Time 7:12 AM CDT 5:58 PM CDT
Civil Twilight 6:42 AM CDT 6:27 PM CDT
Nautical Twilight 6:09 AM CDT 7:01 PM CDT
Astronomical Twilight 5:35 AM CDT 7:34 PM CDT
Moon 7:02 PM CDT (10/20) 8:53 AM CDT (10/20)
Length of Visible Light 11h 44m
Length of Day
10h 46m
Full, 97% of the Moon is Illuminated
Oct 20
Full
Oct 26
Last Quarter
Nov 3
New
Nov 9
First Quarter
Nov 17
Full

Hourly Weather History & Observations

Time (CDT) Temp. Windchill Dew Point Humidity Pressure Visibility Wind Dir Wind Speed Gust Speed Precip Events Conditions
12:56 AM 41.0 °F 36.4 °F 37.0 °F 86% 29.82 in 10.0 mi West 6.9 mph - N/A   Mostly Cloudy
1:56 AM 39.0 °F 36.8 °F 37.0 °F 93% 29.84 in 10.0 mi West 3.5 mph - N/A   Clear
2:56 AM 39.0 °F 34.8 °F 36.0 °F 89% 29.84 in 10.0 mi WNW 5.8 mph - N/A   Clear
3:56 AM 37.0 °F 33.3 °F 35.1 °F 93% 29.85 in 10.0 mi WNW 4.6 mph - N/A   Clear
4:56 AM 36.0 °F 30.3 °F 34.0 °F 93% 29.87 in 10.0 mi WSW 6.9 mph - N/A   Clear
5:56 AM 34.0 °F 29.8 °F 33.1 °F 96% 29.87 in 10.0 mi SW 4.6 mph - N/A   Clear
6:56 AM 34.0 °F 28.8 °F 33.1 °F 96% 29.89 in 10.0 mi SW 5.8 mph - N/A   Clear
7:56 AM 35.1 °F 31.0 °F 34.0 °F 96% 29.91 in 10.0 mi WSW 4.6 mph - N/A   Clear
8:30 AM 37.4 °F 32.1 °F 35.6 °F 93% 29.84 in 10.0 mi WSW 6.9 mph - N/A   Mostly Cloudy
8:56 AM 39.9 °F 33.9 °F 36.0 °F 86% 29.92 in 10.0 mi West 9.2 mph - N/A   Overcast
9:52 AM 39.2 °F 33.6 °F 37.4 °F 93% 29.84 in 10.0 mi West 8.1 mph - N/A   Partly Cloudy
9:56 AM 39.9 °F 34.5 °F 37.0 °F 89% 29.92 in 10.0 mi West 8.1 mph - N/A   Clear
10:36 AM 42.8 °F 40.1 °F 37.4 °F 81% 29.84 in 10.0 mi West 4.6 mph - N/A   Partly Cloudy
10:56 AM 43.0 °F 40.3 °F 37.0 °F 80% 29.91 in 10.0 mi SW 4.6 mph - N/A   Partly Cloudy
11:56 AM 46.9 °F - 36.0 °F 66% 29.92 in 10.0 mi SW 6.9 mph - N/A   Clear
12:56 PM 46.9 °F - 39.0 °F 74% 29.89 in 10.0 mi SSE 10.4 mph - N/A   Partly Cloudy
1:56 PM 46.9 °F - 35.1 °F 63% 29.86 in 10.0 mi SSE 13.8 mph 18.4 mph N/A   Overcast
2:56 PM 46.9 °F - 37.9 °F 71% 29.84 in 10.0 mi South 11.5 mph - 0.00 in   Overcast
3:56 PM 45.0 °F 40.1 °F 41.0 °F 86% 29.82 in 10.0 mi South 9.2 mph - 0.01 in Rain Light Rain
4:56 PM 45.0 °F 40.1 °F 41.0 °F 86% 29.80 in 10.0 mi SSE 9.2 mph - 0.01 in Rain Light Rain
5:56 PM 46.0 °F 42.5 °F 42.1 °F 86% 29.79 in 10.0 mi SSW 6.9 mph - 0.00 in Rain Light Rain
6:56 PM 46.0 °F 41.0 °F 42.1 °F 86% 29.78 in 10.0 mi SSW 10.4 mph - 0.01 in Rain Light Rain
7:56 PM 46.9 °F - 44.1 °F 90% 29.76 in 8.0 mi SSW 10.4 mph - 0.03 in Rain Light Rain
8:22 PM 46.4 °F 41.5 °F 44.6 °F 93% 29.68 in 10.0 mi SSW 10.4 mph - 0.01 in Rain Light Rain
8:39 PM 46.4 °F 42.4 °F 44.6 °F 93% 29.68 in 9.0 mi SW 8.1 mph - 0.01 in   Overcast
8:56 PM 46.9 °F - 44.1 °F 90% 29.76 in 9.0 mi SW 6.9 mph - 0.01 in   Overcast
9:24 PM 46.4 °F 42.9 °F 44.6 °F 93% 29.68 in 8.0 mi SW 6.9 mph - N/A   Overcast
9:56 PM 46.0 °F 43.1 °F 44.1 °F 93% 29.75 in 9.0 mi WSW 5.8 mph - N/A   Scattered Clouds
10:56 PM 46.9 °F - 45.0 °F 93% 29.75 in 10.0 mi SSW 5.8 mph - N/A   Overcast
11:56 PM 48.0 °F - 45.0 °F 89% 29.75 in 10.0 mi SW 6.9 mph - N/A   Overcast